Caldwell, NJ

7:38 AM EDT on March 29, 2017 (GMT -0400)
Essex County

Weather History for KCDW - June, 2012

Change the Weather History Date:

Monday, June 18, 2012

  Actual Average Record
Temperature  
Mean Temperature 62 °F -  
Max Temperature 72 °F 80 °F 96 °F (1952)
Min Temperature 53 °F 58 °F 42 °F (1950)
Degree Days  
Heating Degree Days 4    
Growing Degree Days 12 (Base 50)    
Moisture  
Dew Point 53 °F    
Average Humidity 71    
Maximum Humidity 93    
Minimum Humidity 51    
Precipitation  
Precipitation 0.00 in - - ()
Sea Level Pressure  
Sea Level Pressure 30.14 in    
Wind  
Wind Speed 2 mph (SSE)    
Max Wind Speed 9 mph    
Max Gust Speed -    
Visibility 10 miles    
Events      
Averages and records for this station are not official NWS values.
T = Trace of Precipitation, MM = Missing Value Source: NWS Daily Summary

Daily Weather History Graph

Daily Weather History Graph

Search for Another Location

Airport or City:

Trip Planner

Search our weather history database for the weather conditions in past years. The results will help you decide how hot, cold, wet, or windy it might be!

Date:

Astronomy

Jun. 18, 2012 Rise Set
Actual Time 5:25 AM EDT 8:31 PM EDT
Civil Twilight 4:51 AM EDT 9:05 PM EDT
Nautical Twilight 4:08 AM EDT 9:48 PM EDT
Astronomical Twilight 3:17 AM EDT 10:38 PM EDT
Moon 4:37 AM EDT (6/18) 7:47 PM EDT (6/18)
Length of Visible Light 16h 13m
Length of Day
15h 06m
Waning Crescent, 1% of the Moon is Illuminated
Jun 18
Waning Crescent
Jun 19
New
Jun 26
First Quarter
Jul 3
Full
Jul 10
Last Quarter

Hourly Weather History & Observations

Time (EDT) Temp. Dew Point Humidity Pressure Visibility Wind Dir Wind Speed Gust Speed Precip Events Conditions
12:53 AM 55.0 °F 51.1 °F 86% 30.15 in 10.0 mi Calm Calm - N/A   Clear
1:53 AM 54.0 °F 51.1 °F 90% 30.15 in 10.0 mi Calm Calm - N/A   Clear
2:53 AM 53.1 °F 50.0 °F 89% 30.14 in 10.0 mi Calm Calm - N/A   Partly Cloudy
3:53 AM 53.1 °F 50.0 °F 89% 30.13 in 10.0 mi Calm Calm - N/A   Clear
4:30 AM 53.6 °F 50.0 °F 88% 30.11 in 10.0 mi Calm Calm - N/A   Mostly Cloudy
4:53 AM 54.0 °F 51.1 °F 90% 30.13 in 10.0 mi Calm Calm - N/A   Overcast
5:53 AM 55.0 °F 53.1 °F 93% 30.14 in 8.0 mi Calm Calm - N/A   Overcast
6:53 AM 57.0 °F 54.0 °F 89% 30.16 in 10.0 mi Calm Calm - N/A   Overcast
7:53 AM 60.1 °F 54.0 °F 80% 30.17 in 10.0 mi Calm Calm - N/A   Overcast
8:53 AM 62.1 °F 51.1 °F 67% 30.17 in 10.0 mi ESE 5.8 mph - N/A   Overcast
9:53 AM 64.0 °F 52.0 °F 65% 30.16 in 10.0 mi Calm Calm - N/A   Mostly Cloudy
10:05 AM 64.4 °F 51.8 °F 64% 30.15 in 10.0 mi Calm Calm - N/A   Scattered Clouds
10:53 AM 68.0 °F 52.0 °F 56% 30.15 in 10.0 mi Variable 4.6 mph - N/A   Scattered Clouds
11:53 AM 69.1 °F 52.0 °F 54% 30.14 in 10.0 mi South 8.1 mph - N/A   Clear
12:53 PM 70.0 °F 52.0 °F 53% 30.14 in 10.0 mi Variable 5.8 mph - N/A   Partly Cloudy
1:53 PM 70.0 °F 52.0 °F 53% 30.14 in 10.0 mi Variable 6.9 mph - N/A   Clear
2:53 PM 70.0 °F 51.1 °F 51% 30.14 in 10.0 mi Variable 5.8 mph - N/A   Clear
3:53 PM 70.0 °F 54.0 °F 57% 30.13 in 10.0 mi SSE 8.1 mph - N/A   Overcast
4:53 PM 70.0 °F 54.0 °F 57% 30.12 in 10.0 mi SSE 5.8 mph - N/A   Mostly Cloudy
5:53 PM 69.1 °F 55.0 °F 61% 30.11 in 10.0 mi SE 9.2 mph - N/A   Scattered Clouds
6:53 PM 68.0 °F 55.0 °F 63% 30.11 in 10.0 mi Variable 5.8 mph - N/A   Clear
7:53 PM 66.9 °F 55.0 °F 66% 30.14 in 10.0 mi South 6.9 mph - N/A   Mostly Cloudy
8:53 PM 64.9 °F 55.0 °F 70% 30.14 in 10.0 mi South 3.5 mph - N/A   Clear
9:53 PM 64.0 °F 55.9 °F 75% 30.15 in 10.0 mi Calm Calm - 0.00 in   Mostly Cloudy
10:53 PM 64.0 °F 55.9 °F 75% 30.15 in 10.0 mi Calm Calm - N/A   Mostly Cloudy
11:53 PM 64.0 °F 55.9 °F 75% 30.18 in 10.0 mi Calm Calm - N/A   Overcast